K7JKM Weather Reports


time (UTC)temp
F
wind
direction
speed
knots
gust
knots
rain 1hr
in
rain 24hr
in
rain mn
in
humidity
%
barometer
mb
20260510050029 63 311 0.0 1.7 0.00 0.00 0.00 54 1015.9
20260510044528 64 15 0.0 5.2 0.00 0.00 0.00 53 1015.9
20260510043028 64 341 0.0 3.5 0.00 0.00 0.00 53 1015.7
20260510041533 64 275 0.9 5.2 0.00 0.00 0.00 52 1015.5
20260510040026 65 310 0.0 2.6 0.00 0.00 0.00 52 1015.3
20260510034504 66 153 0.0 2.6 0.00 0.00 0.00 50 1015.1
20260510033003 68 307 0.9 4.3 0.00 0.00 0.00 48 1015.1
20260510031518 69 177 0.0 5.2 0.00 0.00 0.00 45 1015.0
20260510030013 73 321 0.9 3.5 0.00 0.00 0.00 39 1014.9
20260510024511 75 285 0.0 0.9 0.00 0.00 0.00 30 1014.6
20260510023008 77 143 0.0 0.0 0.00 0.00 0.00 29 1014.7
20260510021505 78 143 0.0 0.0 0.00 0.00 0.00 27 1014.8
20260510020004 78 143 0.0 0.0 0.00 0.00 0.00 28 1014.7
20260510014503 77 143 0.0 0.0 0.00 0.00 0.00 29 1014.9
20260510013023 78 140 0.0 0.0 0.00 0.00 0.00 28 1015.0
20260510011519 78 140 0.0 0.0 0.00 0.00 0.00 29 1015.1
20260510010014 79 127 0.0 0.9 0.00 0.00 0.00 29 1015.2
20260510004509 80 127 0.0 0.0 0.00 0.00 0.00 28 1015.3
20260510003010 80 118 0.0 0.9 0.00 0.00 0.00 28 1015.4
20260510001506 80 65 0.0 0.9 0.00 0.00 0.00 26 1015.5
20260510000004 81 86 0.0 0.9 0.00 0.00 0.00 27 1015.6
20260509234534 81 63 0.0 0.9 0.00 0.00 0.00 25 1015.8
20260509233022 79 212 0.0 1.7 0.00 0.00 0.00 26 1015.8
20260509231520 80 317 0.0 0.9 0.00 0.00 0.00 27 1016.1
20260509230016 80 141 0.0 0.9 0.00 0.00 0.00 30 1016.1
20260509224512 79 71 0.0 2.6 0.00 0.00 0.00 31 1016.3
20260509223015 78 50 0.0 4.3 0.00 0.00 0.00 32 1016.6
20260509221508 78 333 0.0 1.7 0.00 0.00 0.00 31 1016.8
20260509220025 77 283 0.0 2.6 0.00 0.00 0.00 35 1017.2
20260509214526 77 56 0.0 1.7 0.00 0.00 0.00 34 1017.4
20260509213024 76 301 0.0 1.7 0.00 0.00 0.00 36 1017.6
20260509211522 76 285 0.0 1.7 0.00 0.00 0.00 38 1017.8
20260509210022 75 32 0.9 4.3 0.00 0.00 0.00 37 1017.9
20260509204515 74 69 0.0 2.6 0.00 0.00 0.00 39 1018.0
20260509203030 73 193 0.0 1.7 0.00 0.00 0.00 42 1018.1
20260509201528 73 207 0.0 2.6 0.00 0.00 0.00 42 1018.3
20260509200026 72 301 0.0 2.6 0.00 0.00 0.00 43 1018.4
20260509194525 72 80 0.0 1.7 0.00 0.00 0.00 39 1018.6
20260509193025 70 317 0.0 3.5 0.00 0.00 0.00 43 1018.8
20260509191521 69 18 0.0 1.7 0.00 0.00 0.00 46 1018.9
20260509190020 69 31 0.0 3.5 0.00 0.00 0.00 47 1019.1
20260509184502 68 52 0.0 3.5 0.00 0.00 0.00 53 1019.4
20260509183012 68 57 0.0 3.5 0.00 0.00 0.00 54 1019.4
20260509181511 67 54 0.0 0.9 0.00 0.00 0.00 56 1019.6
20260509180007 66 352 0.0 0.9 0.00 0.00 0.00 57 1019.7
20260509174503 65 37 0.0 0.9 0.00 0.00 0.00 59 1019.7
20260509173004 63 262 0.0 0.9 0.00 0.00 0.00 62 1019.9
20260509171503 61 64 0.0 3.5 0.00 0.00 0.00 64 1020.0
20260509170004 60 311 0.0 0.9 0.00 0.00 0.00 67 1020.3
20260509164515 59 55 0.0 0.9 0.00 0.00 0.00 69 1020.5
20260509163015 57 58 0.0 0.9 0.00 0.00 0.00 70 1020.8
20260509161512 56 342 0.0 4.3 0.00 0.00 0.00 71 1021.0
20260509160010 56 338 0.0 1.7 0.00 0.00 0.00 72 1021.1
20260509154506 55 80 0.0 0.9 0.00 0.00 0.00 73 1021.1
20260509153005 54 276 0.0 0.0 0.00 0.00 0.00 75 1021.3
20260509151503 53 304 0.0 0.0 0.00 0.00 0.00 76 1021.6
20260509150026 51 124 0.0 0.0 0.00 0.00 0.00 79 1021.6
20260509144521 50 98 0.0 0.0 0.00 0.00 0.00 80 1021.7
20260509143020 49 102 0.0 0.0 0.00 0.00 0.00 81 1021.5
20260509141531 47 25 0.0 0.0 0.00 0.00 0.00 81 1021.6
20260509140013 46 269 0.0 0.0 0.00 0.00 0.00 80 1021.6
20260509134512 45 269 0.0 0.0 0.00 0.00 0.00 79 1021.5
20260509133005 44 269 0.0 0.0 0.00 0.00 0.00 79 1021.5
20260509131531 44 269 0.0 0.0 0.00 0.00 0.00 78 1021.4
20260509130026 44 269 0.0 0.0 0.00 0.00 0.00 77 1021.5
20260509124528 44 269 0.0 0.0 0.00 0.00 0.00 77 1021.6
20260509123021 45 269 0.0 0.0 0.00 0.00 0.00 77 1021.4
20260509121518 46 269 0.0 0.0 0.00 0.00 0.00 77 1021.6
20260509120013 46 269 0.0 0.0 0.00 0.00 0.00 77 1021.8
20260509114530 47 269 0.0 0.0 0.00 0.00 0.00 77 1021.8
20260509113026 47 269 0.0 0.0 0.00 0.00 0.00 76 1021.6
20260509111540 47 269 0.0 0.0 0.00 0.00 0.00 75 1021.6
20260509110025 47 269 0.0 0.0 0.00 0.00 0.00 74 1021.7
20260509104527 47 269 0.0 0.0 0.00 0.00 0.00 74 1022.0
20260509103018 47 269 0.0 0.0 0.00 0.00 0.00 72 1022.1
20260509101527 47 269 0.0 0.0 0.00 0.00 0.00 71 1022.0
20260509100032 48 269 0.0 0.0 0.00 0.00 0.00 70 1022.0
20260509094511 48 269 0.0 0.0 0.00 0.00 0.00 70 1022.2
20260509093006 48 269 0.0 0.0 0.00 0.00 0.00 70 1022.1
20260509091506 49 269 0.0 0.0 0.00 0.00 0.00 69 1022.2
20260509090004 49 269 0.0 0.0 0.00 0.00 0.00 68 1022.3
20260509084512 50 269 0.0 0.0 0.00 0.00 0.00 68 1022.4
20260509083015 50 269 0.0 0.0 0.00 0.00 0.00 68 1022.5
20260509081516 51 269 0.0 0.0 0.00 0.00 0.00 67 1022.6
20260509080016 51 269 0.0 0.0 0.00 0.00 0.00 67 1022.6
20260509074512 52 269 0.0 0.0 0.00 0.00 0.00 68 1022.7
20260509073009 52 269 0.0 0.0 0.00 0.00 0.00 67 1022.7
20260509071507 53 269 0.0 0.0 0.00 0.00 0.00 66 1022.7
20260509070020 53 269 0.0 0.0 0.00 0.00 0.00 66 1022.6
20260509064528 53 265 0.0 0.0 0.00 0.00 0.00 66 1022.6
20260509063018 54 265 0.0 0.0 0.00 0.00 0.00 65 1022.6
20260509061535 54 265 0.0 0.0 0.00 0.00 0.00 64 1022.5
20260509060016 55 265 0.0 0.0 0.00 0.00 0.00 63 1022.5
20260509054511 56 313 0.0 0.0 0.00 0.00 0.00 63 1022.5
20260509053023 56 302 0.0 0.9 0.00 0.00 0.00 62 1022.5
20260509051524 57 302 0.0 0.9 0.00 0.00 0.00 61 1022.4